Regional Weather Roundup
Issued by NWS Jackson, KY

Home | Current Version | Previous Version | Graphics & Text | Print | Product List | Glossary On
Versions: 1 2 3 4 5 6 7 8 9 10 11 12 13 14 15 16 17 18 19 20 21 22 23 24 25 26 27 28 29 30 31 32 33 34 35 36 37 38 39 40 41 42 43 44 45 46 47 48 49 50
559
ASUS43 KJKL 211610
RWRJKL

EAST KENTUCKY HOURLY WEATHER ROUNDUP
NATIONAL WEATHER SERVICE JACKSON KY
1100 AM EST TUE FEB 21 2017

NOTE: "FAIR" INDICATES FEW OR NO CLOUDS BELOW 12,000 FEET WITH
NO SIGNIFICANT WEATHER AND/OR OBSTRUCTIONS TO VISIBILITY.

* THESE REPORTS ARE NOT UNDER NWS QUALITY CONTROL AND MAY NOT
  REPORT WEATHER SUCH AS PRECIPITATION AND FOG.

KYZ079-080-083-085-087-088-110-112-115-119-120-211700
...EASTERN KENTUCKY...

CITY           SKY/WX    TMP DP  RH WIND       PRES   REMARKS
JACKSON        MOSUNNY   65  38  36 S6        30.09R
LONDON         MOSUNNY   64  38  38 SE8       30.07S
SOMERSET*      MOSUNNY   61  41  48 CALM      30.07F
MONTICELLO*    MOSUNNY   68  46  45 VRB6G17   30.06F
WILLIAMSBURG*  MOSUNNY   63  41  45 SE8       30.07F
MIDDLESBORO*   MOSUNNY   62  42  46 CALM      30.09S
HARLAN APT*    SUNNY     64  36  34 CALM      30.10S
PIKE CO APT*     N/A     65  40  40 SE6       30.09
BIG SANDY APT* SUNNY     67  40  37 S8        30.09S
MOREHEAD APT*  MOSUNNY   68  39  34 SW10      30.08S
ASHLAND*       MOSUNNY   55  45  67 CALM      30.06F
$$

KYZ035-036-041-042-044-050-067-078-099-211700
...CENTRAL KENTUCKY...

CITY           SKY/WX    TMP DP  RH WIND       PRES   REMARKS
MT STERLING*   CLOUDY    68  43  40 SW14      30.07S
FLEMING/MASON* MOSUNNY   64  43  47 S8        30.06S
DANVILLE*      CLOUDY    66  45  45 S10G17    30.06S
LEXINGTON      PTSUNNY   68  43  40 SW23      30.05R
FRANKFORT      MOSUNNY   66  45  46 S6        30.02F
LOUISVILLE     CLOUDY    67  44  43 S10       30.01S
LEBANON*         N/A     66  45  45 S14G20    30.03S
GLASGOW*       MOSUNNY   69  47  46 SE10G18   30.01S
BOWLING GREEN  CLOUDY    69  49  48 SE6       30.00F
$$

KYZ091>093-OHZ055-061-077-WVZ005-015-034-035-042-211700
...SOUTHERN OHIO/WEST VIRGINIA...

CITY           SKY/WX    TMP DP  RH WIND       PRES   REMARKS
COVINGTON      CLOUDY    64  46  52 SW9       30.02S
COLUMBUS       CLOUDY    60  43  53 S7        30.03F
DAYTON         CLOUDY    57  42  57 S9        30.02F
WILMINGTON     MOSUNNY   63  46  54 SW15      30.02F
HUNTINGTON     MOSUNNY   66  38  35 S7        30.07S
CHARLESTON     MOSUNNY   63  40  42 CALM      30.09R
PINEVILLE*     MOSUNNY   64  32  30 MISG      30.16F
BECKLEY        MOSUNNY   56  36  47 S13G20    30.15S
BLUEFIELD      MOSUNNY   51  37  58 VRB3G22   30.17R
LOGAN CO APT*    N/A     64  39  39 S10G21    30.09F
$$

VAZ002-007-008-TNZ017-027-036-066-071-211700
...SOUTHWEST VIRGINIA/EAST TENNESSEE...

CITY           SKY/WX    TMP DP  RH WIND       PRES   REMARKS
WISE*          SUNNY     61  34  36 S7G20     30.12S
JONESVILLE*      N/A     66  39  37 SE6       30.12F
ABINGDON*      MOSUNNY   65  38  37 S9        30.13F
BRISTOL        PTSUNNY   65  41  41 SE8       30.11F
MORRISTOWN*    SUNNY     66  41  39 SE9       30.08S
SEVIERVILLE*   SUNNY     57  45  62 CALM      30.07S
KNOXVILLE      CLOUDY    64  45  49 NW5       30.06F
LAFOLLETTE*    SUNNY     63  43  48 NE6       30.11S
OAK RIDGE      MOSUNNY   62  42  47 CALM      30.09S
CROSSVILLE     MOSUNNY   64  46  52 S12G21    30.07S
NASHVILLE      CLOUDY    65  51  60 S9        29.99S
$$

...KEY TO REMARKS...
VSB - VISIBILITY IN MILES
WCI - WIND CHILL INDEX
HX  - HEAT INDEX

$$




USA.gov is the U.S. government's official web portal to all federal, state and local government web resources and services.